TRA65J EHRD-LPMA

Flight info

Callsign TRA65J
Flight time N/A
Altitude 36000
Route SOMEL2A ABNED L980 LOGAN DCT SAM/N0441F350 M195 LORKU DCT EBOMO DCT COQUE DCT KORUL/N0446F370 DCT DEMOS DCT IBIDO DCT MARUM DCT RAKUN RAKUN1P
Aircraft B738/M-SDE2E3FGHIRWXY/LB1

Departure

Time N/A
Airport Rotterdam The Hague Airport (EHRD)

Arrival

Time 2026-05-05 22:00
Airport Cristiano Ronaldo International Airport (LPMA)
Time Latitude Longitude Altitude Speed Heading
2026-05-05 20:17 40.84103 -10.22214 38105 ft 429 kts 216°
2026-05-05 20:18 40.81570 -10.24289 38118 ft 429 kts 216°
2026-05-05 20:18 40.76510 -10.28446 38120 ft 428 kts 216°
2026-05-05 20:19 40.71477 -10.32564 38120 ft 428 kts 216°
2026-05-05 20:19 40.66401 -10.36698 38100 ft 428 kts 216°
2026-05-05 20:20 40.61337 -10.40812 38124 ft 428 kts 216°
2026-05-05 20:20 40.56267 -10.44922 38117 ft 428 kts 216°
2026-05-05 20:21 40.51199 -10.49023 38132 ft 427 kts 216°
2026-05-05 20:21 40.46133 -10.53113 38119 ft 427 kts 215°
2026-05-05 20:22 40.41432 -10.57727 38106 ft 417 kts 236°
2026-05-05 20:22 40.40012 -10.60946 38122 ft 411 kts 252°
2026-05-05 20:22 40.39433 -10.64591 38132 ft 409 kts 269°
2026-05-05 20:23 40.39287 -10.71592 38128 ft 413 kts 254°
2026-05-05 20:23 40.38148 -10.75058 38133 ft 418 kts 241°
2026-05-05 20:23 40.36435 -10.78158 38142 ft 423 kts 231°
2026-05-05 20:24 40.31863 -10.83127 38137 ft 434 kts 214°
2026-05-05 20:24 40.26616 -10.87017 38134 ft 436 kts 213°
2026-05-05 20:25 40.21297 -10.90865 38135 ft 436 kts 213°
2026-05-05 20:25 40.16013 -10.94743 38115 ft 434 kts 213°
2026-05-05 20:26 40.10768 -10.98633 38127 ft 432 kts 213°
2026-05-05 20:26 40.05551 -11.02505 38135 ft 430 kts 213°
2026-05-05 20:27 40.00365 -11.06352 38138 ft 428 kts 213°
2026-05-05 20:27 39.95199 -11.10181 38140 ft 426 kts 213°
2026-05-05 20:28 39.90084 -11.13964 38134 ft 425 kts 213°
2026-05-05 20:28 39.84944 -11.17759 38142 ft 424 kts 213°
2026-05-05 20:29 39.79806 -11.21548 38145 ft 424 kts 213°
2026-05-05 20:29 39.74655 -11.25342 38146 ft 425 kts 213°
2026-05-05 20:30 39.69501 -11.29127 38126 ft 426 kts 213°
2026-05-05 20:30 39.64333 -11.32915 38134 ft 427 kts 213°
2026-05-05 20:31 39.59157 -11.36702 38150 ft 427 kts 213°
2026-05-05 20:31 39.54000 -11.40470 38148 ft 428 kts 213°
2026-05-05 20:32 39.48804 -11.44259 38149 ft 429 kts 213°
2026-05-05 20:32 39.43597 -11.48049 38144 ft 429 kts 213°
2026-05-05 20:33 39.38390 -11.51833 38147 ft 429 kts 213°
2026-05-05 20:33 39.33181 -11.55611 38146 ft 429 kts 213°
2026-05-05 20:34 39.27978 -11.59379 38148 ft 428 kts 213°
2026-05-05 20:34 39.22780 -11.63138 38155 ft 428 kts 213°
2026-05-05 20:35 39.17593 -11.66881 38147 ft 426 kts 213°
2026-05-05 20:35 39.12452 -11.70585 38155 ft 425 kts 213°
2026-05-05 20:36 39.07290 -11.74299 38153 ft 424 kts 213°
2026-05-05 20:36 39.02140 -11.77997 38160 ft 424 kts 213°
2026-05-05 20:37 38.96995 -11.81685 38145 ft 423 kts 213°
2026-05-05 20:37 38.91860 -11.85360 38155 ft 422 kts 213°
2026-05-05 20:38 38.86728 -11.89027 38158 ft 422 kts 213°
2026-05-05 20:38 38.81595 -11.92694 38161 ft 422 kts 213°
2026-05-05 20:39 38.76471 -11.96356 38160 ft 422 kts 213°
2026-05-05 20:39 38.71368 -11.99986 38149 ft 422 kts 213°
2026-05-05 20:40 38.66199 -12.03655 38157 ft 422 kts 213°
2026-05-05 20:40 38.61057 -12.07298 38163 ft 423 kts 213°
2026-05-05 20:41 38.55908 -12.10939 38164 ft 423 kts 213°
2026-05-05 20:41 38.50786 -12.14557 38165 ft 423 kts 213°
2026-05-05 20:42 38.45626 -12.18195 38158 ft 423 kts 213°
2026-05-05 20:42 38.40464 -12.21828 38166 ft 423 kts 213°
2026-05-05 20:43 38.35300 -12.25457 38165 ft 424 kts 213°
2026-05-05 20:43 38.30134 -12.29082 38167 ft 424 kts 213°
2026-05-05 20:44 38.24969 -12.32700 38166 ft 424 kts 213°
2026-05-05 20:44 38.19804 -12.36311 38163 ft 423 kts 213°
2026-05-05 20:45 38.12100 -12.41687 38159 ft 423 kts 213°
2026-05-05 20:45 38.06937 -12.45284 38172 ft 422 kts 213°
2026-05-05 20:46 38.02652 -12.48264 38173 ft 422 kts 213°
2026-05-05 20:46 37.97498 -12.51843 38149 ft 422 kts 213°
2026-05-05 20:47 37.91505 -12.55997 38165 ft 422 kts 212°
2026-05-05 20:47 37.87224 -12.58960 38170 ft 422 kts 212°
2026-05-05 20:48 37.82075 -12.62518 38167 ft 422 kts 212°
2026-05-05 20:48 37.76914 -12.66079 38174 ft 422 kts 212°
2026-05-05 20:49 37.71758 -12.69631 38175 ft 422 kts 212°
2026-05-05 20:49 37.66602 -12.73177 38174 ft 422 kts 212°
2026-05-05 20:50 37.61438 -12.76723 38175 ft 422 kts 212°
2026-05-05 20:50 37.56272 -12.80265 38177 ft 423 kts 212°
2026-05-05 20:51 37.51136 -12.83780 38178 ft 423 kts 212°
2026-05-05 20:51 37.45954 -12.87322 38166 ft 423 kts 212°
2026-05-05 20:52 37.40769 -12.90859 38173 ft 423 kts 212°
2026-05-05 20:52 37.35622 -12.94366 38173 ft 423 kts 212°
2026-05-05 20:53 37.30445 -12.97887 38178 ft 423 kts 212°
2026-05-05 20:53 37.25267 -13.01403 38170 ft 423 kts 212°
2026-05-05 20:54 37.20086 -13.04916 38176 ft 423 kts 212°
2026-05-05 20:54 37.14905 -13.08423 38178 ft 422 kts 212°
2026-05-05 20:55 37.09727 -13.11923 38177 ft 422 kts 212°
2026-05-05 20:55 37.04599 -13.15384 38174 ft 422 kts 212°
2026-05-05 20:56 36.99431 -13.18866 38187 ft 421 kts 212°
2026-05-05 20:56 36.94264 -13.22342 38178 ft 421 kts 212°
2026-05-05 20:57 36.89102 -13.25810 38180 ft 421 kts 212°
2026-05-05 20:57 36.83935 -13.29276 38180 ft 421 kts 212°
2026-05-05 20:58 36.78766 -13.32738 38180 ft 421 kts 212°
2026-05-05 20:58 36.73633 -13.36170 38180 ft 421 kts 212°
2026-05-05 20:59 36.68433 -13.39643 38174 ft 421 kts 212°
2026-05-05 20:59 36.63304 -13.43063 38174 ft 420 kts 212°
2026-05-05 21:00 36.58313 -13.46792 38191 ft 417 kts 217°
2026-05-05 21:00 36.53447 -13.50717 38170 ft 417 kts 217°
2026-05-05 21:01 36.48578 -13.54643 38184 ft 417 kts 217°
2026-05-05 21:01 36.43695 -13.58550 38170 ft 417 kts 216°
2026-05-05 21:02 36.38838 -13.62415 38178 ft 417 kts 216°
2026-05-05 21:02 36.33948 -13.66297 38180 ft 417 kts 216°
2026-05-05 21:03 36.29054 -13.70174 38182 ft 418 kts 216°
2026-05-05 21:03 36.24147 -13.74057 38180 ft 418 kts 216°
2026-05-05 21:04 36.19247 -13.77928 38178 ft 418 kts 216°
2026-05-05 21:04 36.14340 -13.81799 38179 ft 417 kts 216°
2026-05-05 21:05 36.09475 -13.85632 38175 ft 417 kts 216°
2026-05-05 21:05 36.04568 -13.89492 38177 ft 417 kts 216°
2026-05-05 21:06 35.99664 -13.93343 38180 ft 417 kts 216°
2026-05-05 21:06 35.94759 -13.97190 38180 ft 418 kts 216°
2026-05-05 21:07 35.89856 -14.01029 38174 ft 417 kts 216°
2026-05-05 21:07 35.84949 -14.04866 38178 ft 417 kts 216°
2026-05-05 21:08 35.80047 -14.08694 38193 ft 416 kts 217°
2026-05-05 21:08 35.75151 -14.12509 38177 ft 414 kts 216°
2026-05-05 21:09 35.70273 -14.16310 38173 ft 416 kts 216°
2026-05-05 21:09 35.65392 -14.20104 38154 ft 418 kts 216°
2026-05-05 21:10 35.60427 -14.23957 38173 ft 420 kts 216°
2026-05-05 21:10 35.55511 -14.27765 38179 ft 421 kts 216°
2026-05-05 21:11 35.50552 -14.31602 38181 ft 421 kts 216°
2026-05-05 21:11 35.45593 -14.35434 38164 ft 421 kts 216°
2026-05-05 21:12 35.40632 -14.39260 38167 ft 420 kts 216°
2026-05-05 21:12 35.35693 -14.43065 38169 ft 419 kts 216°
2026-05-05 21:13 35.30770 -14.46852 38169 ft 417 kts 216°
2026-05-05 21:13 35.25865 -14.50620 38173 ft 415 kts 216°
2026-05-05 21:14 35.20967 -14.54377 38176 ft 414 kts 216°
2026-05-05 21:14 35.16114 -14.58095 38169 ft 414 kts 216°
2026-05-05 21:15 35.11237 -14.61825 38175 ft 413 kts 216°
2026-05-05 21:15 35.06366 -14.65546 38178 ft 413 kts 216°
2026-05-05 21:16 35.01481 -14.69273 38177 ft 414 kts 216°
2026-05-05 21:16 34.96584 -14.73002 38178 ft 415 kts 216°
2026-05-05 21:17 34.91676 -14.76735 38173 ft 416 kts 216°
2026-05-05 21:17 34.86748 -14.80478 38171 ft 417 kts 216°
2026-05-05 21:18 34.81809 -14.84222 38159 ft 418 kts 216°
2026-05-05 21:18 34.76899 -14.87941 38173 ft 418 kts 216°
2026-05-05 21:19 34.71948 -14.91685 38167 ft 419 kts 216°
2026-05-05 21:19 34.66997 -14.95423 38162 ft 419 kts 216°
2026-05-05 21:20 34.62035 -14.99164 38172 ft 419 kts 216°
2026-05-05 21:20 34.57075 -15.02899 38167 ft 419 kts 216°
2026-05-05 21:21 34.52131 -15.06615 38150 ft 412 kts 216°
2026-05-05 21:21 34.49729 -15.08413 38143 ft 397 kts 216°
2026-05-05 21:21 34.47418 -15.10142 38141 ft 384 kts 216°
2026-05-05 21:22 34.45215 -15.11791 38064 ft 373 kts 216°
2026-05-05 21:22 34.43021 -15.13436 37712 ft 369 kts 216°
2026-05-05 21:22 34.40831 -15.15081 36938 ft 375 kts 216°
2026-05-05 21:22 34.38562 -15.16790 35738 ft 393 kts 216°
2026-05-05 21:23 34.36204 -15.18563 34978 ft 400 kts 216°
2026-05-05 21:23 34.33844 -15.20328 34616 ft 395 kts 215°
2026-05-05 21:23 34.31523 -15.22057 34341 ft 389 kts 216°
2026-05-05 21:23 34.29237 -15.23760 33979 ft 384 kts 216°
2026-05-05 21:24 34.26969 -15.25450 33489 ft 381 kts 216°
2026-05-05 21:24 34.24720 -15.27127 33039 ft 379 kts 216°
2026-05-05 21:24 34.22484 -15.28793 32564 ft 377 kts 216°
2026-05-05 21:24 34.20258 -15.30452 32091 ft 375 kts 215°
2026-05-05 21:25 34.18041 -15.32102 31663 ft 373 kts 215°
2026-05-05 21:25 34.15836 -15.33743 31239 ft 371 kts 215°
2026-05-05 21:25 34.13645 -15.35372 30818 ft 369 kts 215°
2026-05-05 21:25 34.11462 -15.36994 30400 ft 368 kts 215°
2026-05-05 21:26 34.09316 -15.38588 29951 ft 366 kts 215°
2026-05-05 21:26 34.07151 -15.40194 29479 ft 364 kts 215°
2026-05-05 21:26 34.05002 -15.41788 29026 ft 361 kts 215°
2026-05-05 21:26 34.02869 -15.43368 28532 ft 359 kts 215°
2026-05-05 21:27 34.00737 -15.44948 28012 ft 359 kts 215°
2026-05-05 21:27 33.98616 -15.46519 27615 ft 356 kts 215°
2026-05-05 21:27 33.96516 -15.48072 27218 ft 353 kts 215°
2026-05-05 21:27 33.94433 -15.49612 26800 ft 350 kts 215°
2026-05-05 21:28 33.92360 -15.51144 26356 ft 349 kts 215°
2026-05-05 21:28 33.90289 -15.52674 25935 ft 348 kts 215°
2026-05-05 21:28 33.88228 -15.54196 25525 ft 347 kts 215°
2026-05-05 21:28 33.86177 -15.55709 25127 ft 345 kts 215°
2026-05-05 21:29 33.84135 -15.57215 24706 ft 344 kts 215°
2026-05-05 21:29 33.82060 -15.58747 23840 ft 357 kts 215°
2026-05-05 21:29 33.79943 -15.60311 23041 ft 365 kts 215°
2026-05-05 21:29 33.77778 -15.61905 22491 ft 364 kts 215°
2026-05-05 21:30 33.75625 -15.63486 22054 ft 361 kts 215°
2026-05-05 21:30 33.73487 -15.65055 21584 ft 359 kts 214°
2026-05-05 21:30 33.71359 -15.66618 21100 ft 357 kts 215°
2026-05-05 21:30 33.69252 -15.68164 20714 ft 353 kts 214°
2026-05-05 21:31 33.67156 -15.69702 20240 ft 353 kts 214°
2026-05-05 21:31 33.65059 -15.71242 19753 ft 352 kts 214°
2026-05-05 21:31 33.62969 -15.72775 19300 ft 352 kts 214°
2026-05-05 21:31 33.60884 -15.74303 18871 ft 350 kts 214°
2026-05-05 21:32 33.58804 -15.75826 18457 ft 349 kts 214°
2026-05-05 21:32 33.56732 -15.77342 17966 ft 348 kts 214°
2026-05-05 21:32 33.54788 -15.78969 17494 ft 344 kts 224°
2026-05-05 21:32 33.53051 -15.80930 17071 ft 340 kts 227°
2026-05-05 21:33 33.51382 -15.82934 16578 ft 340 kts 229°
2026-05-05 21:33 33.49720 -15.84951 16098 ft 340 kts 227°
2026-05-05 21:33 33.48056 -15.86958 15687 ft 338 kts 227°
2026-05-05 21:33 33.46396 -15.88943 15270 ft 337 kts 229°
2026-05-05 21:34 33.44727 -15.90927 14785 ft 338 kts 226°
2026-05-05 21:34 33.43055 -15.92900 14383 ft 337 kts 227°
2026-05-05 21:34 33.41394 -15.94849 14051 ft 333 kts 227°
2026-05-05 21:34 33.39746 -15.96780 13622 ft 331 kts 226°
2026-05-05 21:35 33.38106 -15.98703 13198 ft 330 kts 226°
2026-05-05 21:35 33.36475 -16.00610 12863 ft 325 kts 226°
2026-05-05 21:35 33.34872 -16.02482 12604 ft 319 kts 225°
2026-05-05 21:35 33.33299 -16.04315 12347 ft 313 kts 226°
2026-05-05 21:36 33.32271 -16.05514 12173 ft 310 kts 225°
2026-05-05 21:36 33.30740 -16.07298 11924 ft 305 kts 225°
2026-05-05 21:36 33.29233 -16.09053 11671 ft 301 kts 226°
2026-05-05 21:36 33.27736 -16.10797 11422 ft 298 kts 225°
2026-05-05 21:37 33.26254 -16.12522 11181 ft 297 kts 225°
2026-05-05 21:37 33.24774 -16.14244 10938 ft 296 kts 225°
2026-05-05 21:37 33.23297 -16.15963 10701 ft 296 kts 225°
2026-05-05 21:37 33.21827 -16.17671 10464 ft 295 kts 225°
2026-05-05 21:38 33.20360 -16.19377 10227 ft 294 kts 225°
2026-05-05 21:38 33.18915 -16.21055 9991 ft 292 kts 225°
2026-05-05 21:38 33.17466 -16.22735 9725 ft 289 kts 225°
2026-05-05 21:38 33.16033 -16.24397 9462 ft 285 kts 225°
2026-05-05 21:39 33.14619 -16.26036 9200 ft 282 kts 225°
2026-05-05 21:39 33.13222 -16.27656 8931 ft 278 kts 225°
2026-05-05 21:39 33.11839 -16.29257 8684 ft 275 kts 225°
2026-05-05 21:39 33.10472 -16.30840 8419 ft 272 kts 225°
2026-05-05 21:40 33.09116 -16.32409 8174 ft 271 kts 225°
2026-05-05 21:40 33.07762 -16.33976 7925 ft 270 kts 225°
2026-05-05 21:40 33.06415 -16.35534 7672 ft 269 kts 225°
2026-05-05 21:40 33.05072 -16.37086 7428 ft 269 kts 224°
2026-05-05 21:41 33.03748 -16.38616 7167 ft 268 kts 225°
2026-05-05 21:41 33.02393 -16.40181 6925 ft 268 kts 225°
2026-05-05 21:41 33.01072 -16.41706 6687 ft 267 kts 225°
2026-05-05 21:41 32.99737 -16.43247 6450 ft 267 kts 225°
2026-05-05 21:42 32.98405 -16.44784 6190 ft 267 kts 224°
2026-05-05 21:42 32.97071 -16.46323 5943 ft 267 kts 224°
2026-05-05 21:42 32.95738 -16.47859 5685 ft 267 kts 224°
2026-05-05 21:42 32.94411 -16.49385 5451 ft 263 kts 224°
2026-05-05 21:43 32.93101 -16.50893 5208 ft 261 kts 224°
2026-05-05 21:43 32.91791 -16.52346 5120 ft 253 kts 222°
2026-05-05 21:43 32.90499 -16.53719 5002 ft 246 kts 221°
2026-05-05 21:43 32.89241 -16.55050 4912 ft 238 kts 221°
2026-05-05 21:44 32.88023 -16.56345 4804 ft 231 kts 221°
2026-05-05 21:44 32.86844 -16.57601 4685 ft 225 kts 221°
2026-05-05 21:44 32.85676 -16.58846 4487 ft 226 kts 221°
2026-05-05 21:44 32.84430 -16.60023 4264 ft 231 kts 216°
2026-05-05 21:45 32.83136 -16.61178 4019 ft 234 kts 214°
2026-05-05 21:45 32.81783 -16.62267 3800 ft 235 kts 211°
2026-05-05 21:45 32.80419 -16.63327 3561 ft 234 kts 210°
2026-05-05 21:45 32.79058 -16.64395 3315 ft 233 kts 212°
2026-05-05 21:46 32.77737 -16.65478 3116 ft 227 kts 213°
2026-05-05 21:46 32.76455 -16.66538 2817 ft 224 kts 212°
2026-05-05 21:46 32.75200 -16.67578 2534 ft 221 kts 212°
2026-05-05 21:46 32.73985 -16.68690 2241 ft 221 kts 229°
2026-05-05 21:47 32.73324 -16.70315 1903 ft 220 kts 236°
2026-05-05 21:47 32.72076 -16.71638 2582 ft 233 kts 208°
2026-05-05 21:47 32.70680 -16.72573 4138 ft 225 kts 206°
2026-05-05 21:47 32.69295 -16.73391 5356 ft 234 kts 203°
2026-05-05 21:48 32.67654 -16.74312 5232 ft 286 kts 202°
2026-05-05 21:48 32.65667 -16.75209 5161 ft 320 kts 190°
2026-05-05 21:48 32.63482 -16.75244 5080 ft 310 kts 166°
2026-05-05 21:48 32.61608 -16.74278 5001 ft 290 kts 140°
2026-05-05 21:49 32.60188 -16.72672 4918 ft 277 kts 134°
2026-05-05 21:49 32.58759 -16.71166 4700 ft 272 kts 136°
2026-05-05 21:49 32.57383 -16.69691 4398 ft 266 kts 127°
2026-05-05 21:49 32.56466 -16.67751 3688 ft 276 kts 105°
2026-05-05 21:50 32.56322 -16.65604 3813 ft 250 kts 78°
2026-05-05 21:50 32.56977 -16.63819 4034 ft 228 kts 50°
2026-05-05 21:50 32.58234 -16.62794 4258 ft 220 kts 18°
2026-05-05 21:50 32.59809 -16.62660 4612 ft 240 kts 355°
2026-05-05 21:51 32.61496 -16.62938 4878 ft 248 kts 356°
2026-05-05 21:51 32.63182 -16.62736 4977 ft 243 kts 19°
2026-05-05 21:51 32.64764 -16.62056 4978 ft 240 kts 30°
2026-05-05 21:51 32.66136 -16.60941 4992 ft 240 kts 37°
2026-05-05 21:52 32.68884 -16.58625 4934 ft 244 kts 36°
2026-05-05 21:52 32.70231 -16.57495 4857 ft 237 kts 36°
2026-05-05 21:52 32.71691 -16.56695 4697 ft 232 kts
2026-05-05 21:53 32.73238 -16.56999 4631 ft 227 kts 334°
2026-05-05 21:53 32.74269 -16.58376 4551 ft 226 kts 295°
2026-05-05 21:53 32.74647 -16.60157 4436 ft 218 kts 290°
2026-05-05 21:53 32.75352 -16.61686 4371 ft 203 kts 302°
2026-05-05 21:54 32.75996 -16.63129 4267 ft 193 kts 300°
2026-05-05 21:54 32.76591 -16.64569 3979 ft 196 kts 297°
2026-05-05 21:54 32.76731 -16.66163 3665 ft 198 kts 249°
2026-05-05 21:54 32.75892 -16.67345 3389 ft 191 kts 210°
2026-05-05 21:55 32.74781 -16.68182 3164 ft 184 kts 209°
2026-05-05 21:55 32.73713 -16.69005 2983 ft 185 kts 210°
2026-05-05 21:55 32.72641 -16.69824 2807 ft 179 kts 210°
2026-05-05 21:55 32.71646 -16.70601 2561 ft 161 kts 212°
2026-05-05 21:56 32.70717 -16.71342 2099 ft 162 kts 211°
2026-05-05 21:56 32.69762 -16.72113 1588 ft 166 kts 212°
2026-05-05 21:56 32.68824 -16.72899 1094 ft 164 kts 215°
2026-05-05 21:56 32.67939 -16.73696 815 ft 158 kts 218°
2026-05-05 21:57 32.67062 -16.74546 893 ft 165 kts 219°
2026-05-05 21:57 32.66133 -16.75369 906 ft 169 kts 214°
2026-05-05 21:57 32.65185 -16.76167 737 ft 167 kts 214°
2026-05-05 21:57 32.64253 -16.76928 780 ft 159 kts 213°
2026-05-05 21:58 32.63552 -16.77972 826 ft 167 kts 257°
2026-05-05 21:58 32.63705 -16.79198 762 ft 143 kts 313°
2026-05-05 21:58 32.64512 -16.79770 795 ft 136 kts 351°
2026-05-05 21:58 32.65439 -16.79948 842 ft 133 kts 358°
2026-05-05 21:59 32.66346 -16.80009 751 ft 129 kts
2026-05-05 21:59 32.67249 -16.79762 565 ft 135 kts 18°
2026-05-05 21:59 32.68076 -16.79285 425 ft 135 kts 32°
2026-05-05 21:59 32.68786 -16.78614 248 ft 125 kts 41°
2026-05-05 22:00 32.69387 -16.77912 155 ft 112 kts 41°
2026-05-05 22:00 32.69852 -16.77377 169 ft 72 kts 45°
2026-05-05 22:00 32.70112 -16.77081 175 ft 35 kts 44°
2026-05-05 22:00 32.70271 -16.76899 179 ft 28 kts 46°
2026-05-05 22:01 32.70395 -16.76819 184 ft 17 kts 30°
2026-05-05 22:01 32.70417 -16.76737 185 ft 5 kts 110°
2026-05-05 22:01 32.70395 -16.76732 184 ft 7 kts 212°
2026-05-05 22:01 32.70328 -16.76825 182 ft 26 kts 226°
2026-05-05 22:02 32.70152 -16.77027 176 ft 36 kts 223°
2026-05-05 22:02 32.70011 -16.77190 172 ft 18 kts 221°
2026-05-05 22:02 32.69953 -16.77196 171 ft 9 kts 149°
2026-05-05 22:02 32.69885 -16.77181 171 ft 12 kts 181°
2026-05-05 22:03 32.69803 -16.77226 170 ft 16 kts 230°
2026-05-05 22:03 32.69720 -16.77334 168 ft 20 kts 224°
2026-05-05 22:03 32.69612 -16.77463 165 ft 24 kts 228°
2026-05-05 22:03 32.69484 -16.77620 161 ft 29 kts 224°
2026-05-05 22:04 32.69420 -16.77696 159 ft 11 kts 224°
2026-05-05 22:04 32.69370 -16.77733 158 ft 6 kts 175°
2026-05-05 22:04 32.69357 -16.77721 158 ft 4 kts 142°
2026-05-05 22:04 32.69339 -16.77701 158 ft 1 kts 139°
2026-05-05 22:05 32.69338 -16.77700 158 ft 0 kts 139°